START_TIME,STEP,MOV.,M15,t_acc.,M20,t_acc.
1979-03-10 15:05:53.430 ,0,0,,0,,0
1979-03-10 15:06:17.430 ,0,0,,0,,0
1979-03-10 15:06:41.430 ,0,0,0.,24.0,0.,24.0
1979-03-10 15:07:05.430 ,6,1,0.,24.0,0.,24.0
1979-03-10 15:07:29.430 ,7,1,0.,24.0,0.,24.0
1979-03-10 15:07:53.430 ,7,1,0.,24.0,0.,24.0
1979-03-10 15:08:17.430 ,6,1,0.,24.0,0.,24.0
1979-03-10 15:08:41.430 ,5,1,0.,24.0,0.,24.0
1979-03-10 15:09:05.430 ,0,0,,0,,0
1979-03-10 15:09:29.430 ,0,0,0.,24.0,0.,24.0
1979-03-10 15:09:53.430 ,2,1,0.,24.0,0.,24.0
1979-03-10 15:10:17.430 ,0,0,,0,,0
1979-03-10 15:28:59.430 ,0,0,0.,24.0,0.,24.0
1979-03-10 15:29:05.430 ,2,1,0.,24.0,0.,24.0
1979-03-10 15:29:29.430 ,1,1,0.,24.0,0.,24.0
1979-03-10 15:29:53.430 ,0,1,0.,24.0,0.,24.0
1979-03-10 15:30:17.430 ,0,1,0.,24.0,0.,24.0
1979-03-10 15:30:41.430 ,1,1,0.,24.0,0.,24.0
1979-03-10 15:31:05.430 ,2,1,0.,24.0,0.,24.0
1979-03-10 15:31:29.430 ,3,1,0.,24.0,0.,24.0
1979-03-10 15:31:53.430 ,4,1,0.,24.0,0.,24.0
1979-03-10 15:32:17.430 ,5,1,0.,24.0,0.,24.0
1979-03-10 15:32:41.430 ,6,1,0.,24.0,0.,24.0
1979-03-10 15:33:05.430 ,7,1,0.,24.0,0.,24.0
1979-03-10 15:33:29.430 ,7,1,0.,24.0,0.,24.0
1979-03-10 15:33:53.430 ,6,1,0.,24.0,0.,24.0
1979-03-10 15:34:17.430 ,5,1,0.,24.0,0.,24.0
1979-03-10 15:34:41.430 ,4,1,0.,24.0,0.,24.0
1979-03-10 15:35:05.430 ,3,1,0.,24.0,0.,24.0
1979-03-10 15:35:29.430 ,2,1,0.,24.0,0.,24.0
1979-03-10 15:35:53.430 ,1,1,0.,24.0,0.,24.0
1979-03-10 15:36:17.430 ,0,1,0.,24.0,0.,24.0
1979-03-10 15:36:41.430 ,0,1,0.,24.0,0.,24.0
1979-03-10 15:37:05.430 ,1,1,0.,24.0,0.,24.0
1979-03-10 15:37:29.430 ,2,1,0.,24.0,0.,24.0
1979-03-10 15:37:53.430 ,3,1,0.,24.0,0.,24.0
1979-03-10 15:38:17.430 ,4,1,0.,24.0,0.,24.0
1979-03-10 15:38:41.430 ,5,1,0.,24.0,0.,24.0
1979-03-10 15:39:05.430 ,6,1,0.,24.0,0.,24.0
1979-03-10 15:39:29.430 ,7,1,0.,24.0,0.,24.0
1979-03-10 15:39:53.430 ,7,1,0.,24.0,0.,24.0
1979-03-10 15:40:17.430 ,6,1,0.,24.0,0.,24.0
1979-03-10 15:40:41.430 ,5,1,0.,24.0,0.,24.0
1979-03-10 15:41:05.430 ,4,1,0.,24.0,0.,24.0
1979-03-10 15:41:29.430 ,0,0,,0,,0
1979-03-10 15:42:37.230 ,0,0,0.,24.0,0.,24.0
1979-03-10 15:42:41.430 ,0,1,0.,24.0,0.,24.0
1979-03-10 15:43:05.430 ,0,1,0.,24.0,0.,24.0
1979-03-10 15:43:29.430 ,0,0,,0,,0
1979-03-10 15:43:53.430 ,0,0,,0,,0
1979-03-10 15:47:19.830 ,0,0,0.,24.0,0.,24.0
1979-03-10 15:47:29.430 ,4,1,0.,24.0,0.,24.0
1979-03-10 15:47:53.430 ,3,1,0.,24.0,0.,24.0
1979-03-10 15:48:17.430 ,2,1,0.,24.0,0.,24.0
1979-03-10 15:48:41.430 ,1,1,0.,24.0,0.,24.0
1979-03-10 15:49:05.430 ,0,1,0.,24.0,0.,24.0
1979-03-10 15:49:29.430 ,0,1,0.,24.0,0.,24.0
1979-03-10 15:49:53.430 ,1,1,0.,24.0,0.,24.0
1979-03-10 15:50:17.430 ,2,1,0.,24.0,0.,24.0
1979-03-10 15:50:41.430 ,3,1,0.,24.0,0.,24.0
1979-03-10 15:51:05.430 ,4,1,0.,24.0,0.,24.0
1979-03-10 15:51:29.430 ,5,1,0.,24.0,0.,24.0
1979-03-10 15:51:53.430 ,6,1,0.,24.0,0.,24.0
1979-03-10 15:52:17.430 ,7,1,0.,24.0,0.,24.0
1979-03-10 15:52:41.430 ,7,1,0.,24.0,0.,24.0
1979-03-10 15:53:05.430 ,6,1,0.,24.0,0.,24.0
1979-03-10 15:53:29.430 ,5,1,0.,24.0,0.,24.0
1979-03-10 15:53:53.430 ,4,1,0.,24.0,0.,24.0
1979-03-10 15:54:17.430 ,3,1,0.,24.0,0.,24.0
1979-03-10 15:54:41.430 ,2,1,0.,24.0,0.,24.0
1979-03-10 15:55:05.430 ,1,1,0.,24.0,0.,24.0
1979-03-10 15:55:29.430 ,0,1,0.,24.0,0.,24.0
1979-03-10 15:55:53.430 ,0,1,0.,24.0,0.,24.0
1979-03-10 15:56:17.430 ,1,1,0.,24.0,0.,24.0
1979-03-10 15:56:41.430 ,2,1,0.,24.0,0.,24.0
1979-03-10 15:57:05.430 ,3,1,0.,24.0,0.,24.0
1979-03-10 15:57:29.430 ,4,1,0.,24.0,0.,24.0
1979-03-10 15:57:53.430 ,5,1,0.,24.0,0.,24.0
1979-03-10 15:58:17.430 ,6,1,0.,24.0,0.,24.0
1979-03-10 15:58:41.430 ,7,1,0.,24.0,0.,24.0
1979-03-10 15:59:05.430 ,7,1,0.,24.0,0.,24.0
1979-03-10 15:59:29.430 ,6,1,0.,24.0,0.,24.0
1979-03-10 15:59:53.430 ,5,1,0.,24.0,0.,24.0
1979-03-10 16:00:17.430 ,4,1,0.,24.0,0.,24.0
1979-03-10 16:00:41.430 ,3,1,0.,24.0,0.,24.0
1979-03-10 16:01:05.430 ,2,1,0.,24.0,0.,24.0
1979-03-10 16:01:29.430 ,1,1,0.,24.0,0.,24.0
1979-03-10 16:01:53.430 ,0,1,0.,24.0,0.,24.0
1979-03-10 16:02:17.430 ,0,1,0.,24.0,0.,24.0
1979-03-10 16:02:41.430 ,1,1,0.,24.0,0.,24.0
1979-03-10 16:03:05.430 ,2,1,0.,24.0,0.,24.0
1979-03-10 16:03:29.430 ,3,1,0.,24.0,0.,24.0
1979-03-10 16:03:53.430 ,4,1,0.,24.0,0.,24.0
1979-03-10 16:04:17.430 ,5,1,0.,24.0,0.,24.0
1979-03-10 16:04:41.430 ,6,1,0.,24.0,0.,24.0
1979-03-10 16:05:05.430 ,7,1,0.,24.0,0.,24.0
1979-03-10 16:05:29.430 ,7,1,0.,24.0,0.,24.0
1979-03-10 16:05:53.430 ,6,1,0.,24.0,0.,24.0
1979-03-10 16:06:17.430 ,5,1,0.,24.0,0.,24.0
1979-03-10 16:06:41.430 ,4,1,0.,24.0,0.,24.0
1979-03-10 16:07:05.430 ,3,1,0.,24.0,0.,24.0
1979-03-10 16:07:29.430 ,2,1,0.,24.0,0.,24.0
1979-03-10 16:07:53.430 ,1,1,0.,24.0,0.,24.0
1979-03-10 16:08:17.430 ,0,1,0.,24.0,0.,24.0
1979-03-10 16:08:41.430 ,0,1,0.,24.0,0.,24.0
1979-03-10 16:09:05.430 ,1,1,0.,24.0,0.,24.0
1979-03-10 16:09:29.430 ,2,1,0.,24.0,0.,24.0
1979-03-10 16:09:53.430 ,3,1,0.,24.0,0.,24.0
1979-03-10 16:10:17.430 ,4,1,0.,24.0,0.,24.0
1979-03-10 16:10:41.430 ,5,1,0.,24.0,0.,24.0
1979-03-10 16:11:05.430 ,6,1,0.,24.0,0.,24.0
1979-03-10 16:11:29.430 ,7,1,0.,24.0,0.,24.0
1979-03-10 16:11:53.430 ,7,1,0.,24.0,0.,24.0
1979-03-10 16:12:17.430 ,6,1,0.,24.0,0.,24.0
1979-03-10 16:12:41.430 ,5,1,0.,24.0,0.,24.0
1979-03-10 16:13:05.430 ,4,1,0.,24.0,0.,24.0
1979-03-10 16:13:29.430 ,3,1,0.,24.0,0.,24.0
1979-03-10 16:13:53.430 ,2,1,0.,24.0,0.,24.0
1979-03-10 16:14:17.430 ,1,1,0.,24.0,0.,24.0
1979-03-10 16:14:41.430 ,0,1,0.,24.0,0.,24.0
1979-03-10 16:15:05.430 ,0,1,0.,24.0,0.,24.0
1979-03-10 16:15:29.430 ,1,1,0.,24.0,0.,24.0
1979-03-10 16:15:53.430 ,2,1,0.,24.0,0.,24.0
1979-03-10 16:16:17.430 ,3,1,0.,24.0,0.,24.0
1979-03-10 16:16:41.430 ,4,1,0.,24.0,0.,24.0
1979-03-10 16:17:05.430 ,5,1,0.,24.0,0.,24.0
1979-03-10 16:17:29.430 ,6,1,0.,24.0,0.,24.0
1979-03-10 16:17:53.430 ,7,1,0.,24.0,0.,24.0
1979-03-10 16:18:17.430 ,7,1,0.,24.0,0.,24.0
1979-03-10 16:18:41.430 ,6,1,0.,24.0,0.,24.0
1979-03-10 16:19:05.430 ,5,1,0.,24.0,0.,24.0
1979-03-10 16:19:29.430 ,4,1,0.,24.0,0.,24.0
1979-03-10 16:19:53.430 ,3,1,0.,24.0,0.,24.0
1979-03-10 16:20:17.430 ,2,1,0.,24.0,0.,24.0
1979-03-10 16:20:41.430 ,1,1,0.,24.0,0.,24.0
1979-03-10 16:21:05.430 ,0,1,0.,24.0,0.,24.0
1979-03-10 16:21:29.430 ,0,1,0.,24.0,0.,24.0
1979-03-10 16:21:53.430 ,1,1,0.,24.0,0.,24.0
1979-03-10 16:22:17.430 ,2,1,0.,24.0,0.,24.0
1979-03-10 16:22:41.430 ,3,1,0.,24.0,0.,24.0
1979-03-10 16:23:05.430 ,4,1,0.,24.0,0.,24.0
1979-03-10 16:23:29.430 ,5,1,0.,24.0,0.,24.0
1979-03-10 16:23:53.430 ,6,1,0.,24.0,0.,24.0
1979-03-10 16:24:17.430 ,7,1,0.,24.0,0.,24.0
1979-03-10 16:24:41.430 ,7,1,0.,24.0,0.,24.0
1979-03-10 16:25:05.430 ,6,1,0.,24.0,0.,24.0
1979-03-10 16:25:29.430 ,5,1,0.,24.0,0.,24.0
1979-03-10 16:25:53.430 ,4,1,0.,24.0,0.,24.0
1979-03-10 16:26:17.430 ,3,1,0.,24.0,0.,24.0
1979-03-10 16:26:41.430 ,2,1,0.,24.0,0.,24.0
1979-03-10 16:27:05.430 ,1,1,0.,24.0,0.,24.0
1979-03-10 16:27:29.430 ,0,1,0.,24.0,0.,24.0
1979-03-10 16:27:53.430 ,0,1,0.,24.0,0.,24.0
1979-03-10 16:28:17.430 ,1,1,0.,24.0,0.,24.0
1979-03-10 16:28:41.430 ,2,1,0.,24.0,0.,24.0
1979-03-10 16:29:05.430 ,3,1,0.,24.0,0.,24.0
1979-03-10 16:29:29.430 ,4,1,0.,24.0,0.,24.0
1979-03-10 16:29:53.430 ,5,1,0.,24.0,0.,24.0
1979-03-10 16:30:17.430 ,6,1,0.,24.0,0.,24.0
1979-03-10 16:30:41.430 ,7,1,0.,24.0,0.,24.0
1979-03-10 16:31:05.430 ,7,1,0.,24.0,0.,24.0
1979-03-10 16:31:29.430 ,6,1,0.,24.0,0.,24.0
1979-03-10 16:31:53.430 ,5,1,0.,24.0,0.,24.0
1979-03-10 16:32:17.430 ,4,1,0.,24.0,0.,24.0
1979-03-10 16:32:41.430 ,3,1,0.,24.0,0.,24.0
1979-03-10 16:33:05.430 ,2,1,0.,24.0,0.,24.0
1979-03-10 16:33:29.430 ,1,1,0.,24.0,0.,24.0
1979-03-10 16:33:53.430 ,0,1,0.,24.0,0.,24.0
1979-03-10 16:34:17.430 ,0,1,0.,24.0,0.,24.0
1979-03-10 16:34:41.430 ,1,1,0.,24.0,0.,24.0
1979-03-10 16:35:05.430 ,2,1,0.,24.0,0.,24.0
1979-03-10 16:35:29.430 ,3,1,0.,24.0,0.,24.0
1979-03-10 16:35:53.430 ,4,1,0.,24.0,0.,24.0
1979-03-10 16:36:17.430 ,5,1,0.,24.0,0.,24.0
1979-03-10 16:36:41.430 ,6,1,0.,24.0,0.,24.0
1979-03-10 16:37:05.430 ,7,1,0.,24.0,0.,24.0
1979-03-10 16:37:29.430 ,7,1,0.,24.0,0.,24.0
1979-03-10 16:37:53.430 ,6,1,0.,24.0,0.,24.0
1979-03-10 16:38:17.430 ,5,1,0.,24.0,0.,24.0
1979-03-10 16:38:41.430 ,4,1,0.,24.0,0.,24.0
1979-03-10 16:39:05.430 ,3,1,0.,24.0,0.,24.0
1979-03-10 16:39:29.430 ,2,1,0.,24.0,0.,24.0
1979-03-10 16:39:53.430 ,1,1,0.,24.0,0.,24.0
1979-03-10 16:40:17.430 ,0,1,0.,24.0,0.,24.0
1979-03-10 16:40:41.430 ,0,1,0.,24.0,0.,24.0
1979-03-10 16:41:05.430 ,1,1,0.,24.0,0.,24.0
1979-03-10 16:41:29.430 ,2,1,0.,24.0,0.,24.0
1979-03-10 16:41:53.430 ,3,1,0.,24.0,0.,24.0
1979-03-10 16:42:17.430 ,4,1,0.,24.0,0.,24.0
1979-03-10 16:42:41.430 ,5,1,0.,24.0,0.,24.0
1979-03-10 16:43:05.430 ,6,1,0.,24.0,0.,24.0
1979-03-10 16:43:29.430 ,7,1,0.,24.0,0.,24.0
1979-03-10 16:43:53.430 ,7,1,0.,24.0,0.,24.0
1979-03-10 16:44:17.430 ,6,1,0.,24.0,0.,24.0
1979-03-10 16:44:41.430 ,5,1,0.,24.0,0.,24.0
1979-03-10 16:45:05.430 ,4,1,0.,24.0,0.,24.0
1979-03-10 16:45:29.430 ,3,1,0.,24.0,0.,24.0
1979-03-10 16:45:53.430 ,2,1,0.,24.0,0.,24.0
1979-03-10 16:46:17.430 ,1,1,0.,24.0,0.,24.0
1979-03-10 16:46:41.430 ,0,1,0.,24.0,0.,24.0
1979-03-10 16:47:05.430 ,0,1,0.,24.0,0.,24.0
1979-03-10 16:47:29.430 ,1,1,0.,24.0,0.,24.0
1979-03-10 16:47:53.430 ,2,1,0.,24.0,0.,24.0
1979-03-10 16:48:17.430 ,3,1,0.,24.0,0.,24.0
1979-03-10 16:48:41.430 ,4,1,0.,24.0,0.,24.0
1979-03-10 16:49:05.430 ,5,1,0.,24.0,0.,24.0
1979-03-10 16:49:29.430 ,6,1,0.,24.0,0.,24.0
1979-03-10 16:49:53.430 ,7,1,0.,24.0,0.,24.0
1979-03-10 16:50:17.430 ,7,1,0.,24.0,0.,24.0
1979-03-10 16:50:41.430 ,6,1,0.,24.0,0.,24.0
1979-03-10 16:51:05.430 ,5,1,0.,24.0,0.,24.0
1979-03-10 16:51:29.430 ,4,1,0.,24.0,0.,24.0
1979-03-10 16:51:53.430 ,3,1,0.,24.0,0.,24.0
1979-03-10 16:52:17.430 ,2,1,0.,24.0,0.,24.0
1979-03-10 16:52:41.430 ,1,1,0.,24.0,0.,24.0
1979-03-10 16:53:05.430 ,0,1,0.,24.0,0.,24.0
1979-03-10 16:53:29.430 ,0,1,0.,24.0,0.,24.0
1979-03-10 16:53:53.430 ,1,1,0.,24.0,0.,24.0
1979-03-10 16:54:17.430 ,2,1,0.,24.0,0.,24.0
1979-03-10 16:54:41.430 ,3,1,0.,24.0,0.,24.0
1979-03-10 16:55:05.430 ,4,1,0.,24.0,0.,24.0
1979-03-10 16:55:29.430 ,5,1,0.,24.0,0.,24.0
1979-03-10 16:55:53.430 ,6,1,0.,24.0,0.,24.0
1979-03-10 16:56:17.430 ,7,1,0.,24.0,0.,24.0
1979-03-10 16:56:41.430 ,7,1,0.,24.0,0.,24.0
1979-03-10 16:57:05.430 ,6,1,0.,24.0,0.,24.0
1979-03-10 16:57:29.430 ,5,1,0.,24.0,0.,24.0
1979-03-10 16:57:53.430 ,4,1,0.,24.0,0.,24.0
1979-03-10 16:58:17.430 ,3,1,0.,24.0,0.,24.0
1979-03-10 16:58:41.430 ,2,1,0.,24.0,0.,24.0
1979-03-10 16:59:05.430 ,1,1,0.,24.0,0.,24.0
1979-03-10 16:59:29.430 ,0,1,0.,24.0,0.,24.0
1979-03-10 16:59:53.430 ,0,1,0.,24.0,0.,24.0
1979-03-10 17:00:17.430 ,1,1,0.,24.0,0.,24.0
1979-03-10 17:00:41.430 ,2,1,0.,24.0,0.,24.0
1979-03-10 17:01:05.430 ,3,1,0.,24.0,0.,24.0
1979-03-10 17:01:29.430 ,4,1,0.,24.0,0.,24.0
1979-03-10 17:01:53.430 ,5,1,0.,24.0,0.,24.0
1979-03-10 17:02:17.430 ,6,1,0.,24.0,0.,24.0
1979-03-10 17:02:41.430 ,7,1,0.,24.0,0.,24.0
1979-03-10 17:03:05.430 ,7,1,0.,24.0,0.,24.0
1979-03-10 17:03:29.430 ,6,1,0.,24.0,0.,24.0
1979-03-10 17:03:53.430 ,5,1,0.,24.0,0.,24.0
1979-03-10 17:04:17.430 ,4,1,0.,24.0,0.,24.0
1979-03-10 17:04:41.430 ,3,1,0.,24.0,0.,24.0
1979-03-10 17:05:05.430 ,2,1,0.,24.0,0.,24.0
1979-03-10 17:05:29.430 ,1,1,0.,24.0,0.,24.0
1979-03-10 17:05:53.430 ,0,1,0.,24.0,0.,24.0
1979-03-10 17:06:17.430 ,0,1,0.,24.0,0.,24.0
1979-03-10 17:06:41.430 ,0,0,0.,24.0,0.,24.0
1979-03-10 17:07:05.430 ,2,1,0.,24.0,0.,24.0
1979-03-10 17:07:29.430 ,3,1,0.,24.0,0.,24.0
1979-03-10 17:07:53.430 ,4,1,0.,24.0,0.,24.0
1979-03-10 17:08:17.430 ,5,1,0.,24.0,0.,24.0
1979-03-10 17:08:41.430 ,6,1,0.,24.0,0.,24.0
1979-03-10 17:09:05.430 ,7,1,0.,24.0,0.,24.0
1979-03-10 17:09:29.430 ,7,1,0.,24.0,0.,24.0
1979-03-10 17:09:53.430 ,6,1,0.,24.0,0.,24.0
1979-03-10 17:10:17.430 ,5,1,0.,24.0,0.,24.0
1979-03-10 17:10:41.430 ,4,1,0.,24.0,0.,24.0
1979-03-10 17:11:05.430 ,3,1,0.,24.0,0.,24.0
1979-03-10 17:11:29.430 ,2,1,0.,24.0,0.,24.0
1979-03-10 17:11:53.430 ,1,1,0.,24.0,0.,24.0
1979-03-10 17:12:17.430 ,0,1,0.,24.0,0.,24.0
1979-03-10 17:12:41.430 ,0,1,0.,24.0,0.,24.0
1979-03-10 17:13:05.430 ,1,1,0.,24.0,0.,24.0
1979-03-10 17:13:29.430 ,2,1,0.,24.0,0.,24.0
1979-03-10 17:13:53.430 ,3,1,0.,24.0,0.,24.0
1979-03-10 17:14:17.430 ,4,1,0.,24.0,0.,24.0
1979-03-10 17:14:41.430 ,5,1,0.,24.0,0.,24.0
1979-03-10 17:15:05.430 ,6,1,0.,24.0,0.,24.0
1979-03-10 17:15:29.430 ,7,1,0.,24.0,0.,24.0
1979-03-10 17:15:53.430 ,7,1,0.,24.0,0.,24.0
1979-03-10 17:16:17.430 ,6,1,0.,24.0,0.,24.0
1979-03-10 17:16:41.430 ,5,1,0.,24.0,0.,24.0
1979-03-10 17:17:05.430 ,4,1,0.,24.0,0.,24.0
1979-03-10 17:17:29.430 ,3,1,0.,24.0,0.,24.0
1979-03-10 17:17:53.430 ,2,1,0.,24.0,0.,24.0
1979-03-10 17:18:17.430 ,1,1,0.,24.0,0.,24.0
1979-03-10 17:18:41.430 ,0,1,0.,24.0,0.,24.0
1979-03-10 17:19:05.430 ,0,1,0.,24.0,0.,24.0
1979-03-10 17:19:29.430 ,1,1,0.,24.0,0.,24.0
1979-03-10 17:19:53.430 ,2,1,0.,24.0,0.,24.0
1979-03-10 17:20:17.430 ,3,1,0.,24.0,0.,24.0
1979-03-10 17:20:41.430 ,4,1,0.,24.0,0.,24.0
1979-03-10 17:21:05.430 ,5,1,0.,24.0,0.,24.0
1979-03-10 17:21:29.430 ,6,1,0.,24.0,0.,24.0
1979-03-10 17:21:53.430 ,7,1,0.,24.0,0.,24.0
1979-03-10 17:22:17.430 ,7,1,0.,24.0,0.,24.0
1979-03-10 17:22:41.430 ,6,1,0.,24.0,0.,24.0
1979-03-10 17:23:05.430 ,5,1,0.,24.0,0.,24.0
1979-03-10 17:23:29.430 ,4,1,0.,24.0,0.,24.0
1979-03-10 17:23:53.430 ,3,1,0.,24.0,0.,24.0
1979-03-10 17:24:17.430 ,2,1,0.,24.0,0.,24.0
1979-03-10 17:24:41.430 ,1,1,0.,24.0,0.,24.0
1979-03-10 17:25:05.430 ,0,1,0.,24.0,0.,24.0
1979-03-10 17:25:29.430 ,0,1,0.,24.0,0.,24.0
1979-03-10 17:25:53.430 ,1,1,0.,24.0,0.,24.0
1979-03-10 17:26:17.430 ,2,1,0.,24.0,0.,24.0
1979-03-10 17:26:41.430 ,3,1,0.,24.0,0.,24.0
1979-03-10 17:27:05.430 ,4,1,0.,24.0,0.,24.0
1979-03-10 17:27:29.430 ,5,1,0.,24.0,0.,24.0
1979-03-10 17:27:53.430 ,6,1,0.,24.0,0.,24.0
1979-03-10 17:28:17.430 ,7,1,0.,24.0,0.,24.0
1979-03-10 17:28:41.430 ,0,0,0.,24.0,0.,24.0
1979-03-10 17:29:05.430 ,6,1,0.,24.0,0.,24.0
1979-03-10 17:29:29.430 ,5,1,0.,24.0,0.,24.0
1979-03-10 17:29:53.430 ,4,1,0.,24.0,0.,24.0
1979-03-10 17:30:17.430 ,3,1,0.,24.0,0.,24.0
1979-03-10 17:30:41.430 ,2,1,0.,24.0,0.,24.0
1979-03-10 17:31:05.430 ,1,1,0.,24.0,0.,24.0
1979-03-10 17:31:29.430 ,0,1,0.,24.0,0.,24.0
1979-03-10 17:31:53.430 ,0,1,0.,24.0,0.,24.0
1979-03-10 17:32:17.430 ,1,1,0.,24.0,0.,24.0
1979-03-10 17:32:41.430 ,2,1,0.,24.0,0.,24.0
1979-03-10 17:33:05.430 ,3,1,0.,24.0,0.,24.0
1979-03-10 17:33:29.430 ,4,1,0.,24.0,0.,24.0
1979-03-10 17:33:53.430 ,5,1,0.,24.0,0.,24.0
1979-03-10 17:34:17.430 ,6,1,0.,24.0,0.,24.0
1979-03-10 17:34:41.430 ,7,1,0.,24.0,0.,24.0
1979-03-10 17:35:05.430 ,7,1,0.,24.0,0.,24.0
1979-03-10 17:35:29.430 ,6,1,0.,24.0,0.,24.0
1979-03-10 17:35:53.430 ,5,1,0.,24.0,0.,24.0
1979-03-10 17:36:17.430 ,4,1,0.,24.0,0.,24.0
1979-03-10 17:36:41.430 ,3,1,0.,24.0,0.,24.0
1979-03-10 17:37:05.430 ,2,1,0.,24.0,0.,24.0
1979-03-10 17:37:29.430 ,1,1,0.,24.0,0.,24.0
1979-03-10 17:37:53.430 ,0,1,0.,24.0,0.,24.0
1979-03-10 17:38:17.430 ,0,1,0.,24.0,0.,24.0
1979-03-10 17:38:41.430 ,1,1,0.,24.0,0.,24.0
1979-03-10 17:39:05.430 ,2,1,0.,24.0,0.,24.0
1979-03-10 17:39:29.430 ,3,1,0.,24.0,0.,24.0
1979-03-10 17:39:53.430 ,4,1,0.,24.0,0.,24.0
1979-03-10 17:40:17.430 ,5,1,0.,24.0,0.,24.0
1979-03-10 17:40:41.430 ,6,1,0.,24.0,0.,24.0
1979-03-10 17:41:05.430 ,7,1,0.,24.0,0.,24.0
1979-03-10 17:41:29.430 ,7,1,0.,24.0,0.,24.0
1979-03-10 17:41:53.430 ,6,1,0.,24.0,0.,24.0
1979-03-10 17:42:17.430 ,5,1,0.,24.0,0.,24.0
1979-03-10 17:42:41.430 ,4,1,0.,24.0,0.,24.0
1979-03-10 17:43:05.430 ,3,1,0.,24.0,0.,24.0
1979-03-10 17:43:29.430 ,2,1,0.,24.0,0.,24.0
1979-03-10 17:43:53.430 ,1,1,0.,24.0,0.,24.0
1979-03-10 17:44:17.430 ,0,1,0.,24.0,0.,24.0
1979-03-10 17:44:41.430 ,0,1,0.,24.0,0.,24.0
1979-03-10 17:45:05.430 ,1,1,0.,24.0,0.,24.0
1979-03-10 17:45:29.430 ,2,1,0.,24.0,0.,24.0
1979-03-10 17:45:53.430 ,3,1,0.,24.0,0.,24.0
1979-03-10 17:46:17.430 ,4,1,0.,24.0,0.,24.0
1979-03-10 17:46:41.430 ,5,1,0.,24.0,0.,24.0
1979-03-10 17:47:05.430 ,6,1,0.,24.0,0.,24.0
1979-03-10 17:47:29.430 ,7,1,0.,24.0,0.,24.0
1979-03-10 17:47:53.430 ,7,1,0.,24.0,0.,24.0
1979-03-10 17:48:17.430 ,6,1,0.,24.0,0.,24.0
1979-03-10 17:48:41.430 ,5,1,0.,24.0,0.,24.0
1979-03-10 17:49:05.430 ,4,1,0.,24.0,0.,24.0
1979-03-10 17:49:29.430 ,3,1,0.,24.0,0.,24.0
1979-03-10 17:49:53.430 ,2,1,0.,24.0,0.,24.0
1979-03-10 17:50:17.430 ,1,1,0.,24.0,0.,24.0
1979-03-10 17:50:41.430 ,0,1,0.,24.0,0.,24.0
1979-03-10 17:51:05.430 ,0,1,0.,24.0,0.,24.0
1979-03-10 17:51:29.430 ,1,1,0.,24.0,0.,24.0
1979-03-10 17:51:53.430 ,2,1,0.,24.0,0.,24.0
1979-03-10 17:52:17.430 ,3,1,0.,24.0,0.,24.0
1979-03-10 17:52:41.430 ,4,1,0.,24.0,0.,24.0
1979-03-10 17:53:05.430 ,5,1,0.,24.0,0.,24.0
1979-03-10 17:53:29.430 ,6,1,0.,24.0,0.,24.0
1979-03-10 17:53:53.430 ,7,1,0.,24.0,0.,24.0
1979-03-10 17:54:17.430 ,7,1,0.,24.0,0.,24.0
1979-03-10 17:54:41.430 ,6,1,0.,24.0,0.,24.0
1979-03-10 17:55:05.430 ,5,1,0.,24.0,0.,24.0
1979-03-10 17:55:29.430 ,4,1,0.,24.0,0.,24.0
1979-03-10 17:55:53.430 ,3,1,0.,24.0,0.,24.0
1979-03-10 17:56:17.430 ,2,1,0.,24.0,0.,24.0
1979-03-10 17:56:41.430 ,1,1,0.,24.0,0.,24.0
1979-03-10 17:57:05.430 ,0,1,0.,24.0,0.,24.0
1979-03-10 17:57:29.430 ,0,1,0.,24.0,0.,24.0
1979-03-10 17:57:53.430 ,1,1,0.,24.0,0.,24.0
1979-03-10 17:58:17.430 ,2,1,0.,24.0,0.,24.0
1979-03-10 17:58:41.430 ,3,1,0.,24.0,0.,24.0
1979-03-10 17:59:05.430 ,4,1,0.,24.0,0.,24.0
1979-03-10 17:59:29.430 ,5,1,0.,24.0,0.,24.0
1979-03-10 17:59:53.430 ,6,1,0.,24.0,0.,24.0
1979-03-10 18:00:17.430 ,7,1,0.,24.0,0.,24.0
